Weather Roundup
Issued by NWS Chicago, IL

Home | Current Version | Previous Version | Text Only | Print | Product List | Glossary Off
Versions: 1 2 3 4 5 6 7 8 9 10 11 12 13 14 15 16 17 18 19 20 21 22 23 24 25 26 27 28 29 30 31 32 33 34 35 36 37 38 39 40 41 42 43 44 45 46 47 48 49 50

000
NZUS59 KLOT 210008
HRRLOT

CHICAGO AREA WEATHER ROUNDUP
NATIONAL WEATHER SERVICE CHICAGO/ROMEOVILLE IL
600 PM CST FRI JAN 20 2017

NOTE: "FAIR" INDICATES FEW OR NO CLOUDS BELOW 12,000 FEET WITH NO
SIGNIFICANT WEATHER AND/OR OBSTRUCTIONS TO VISIBILITY.

* THESE STATIONS ARE NOT UNDER NWS QUALITY CONTROL. THEY ALSO MAY NOT
  REPORT WEATHER SUCH AS PRECIPITATION OR FOG.

ILZ005-006-012>014-019>023-210100-
NORTHEAST ILLINOIS

CITY           SKY/WX    TMP DP  RH WIND       PRES   REMARKS
OHARE          CLOUDY    41  40  96 E7        29.65S FOG
6HR MIN TEMP:  40; 6HR MAX TEMP:  42; 6HR PCP: TRACE;

MIDWAY         CLOUDY    41  39  93 E5        29.66S FOG
6HR MIN TEMP:  39; 6HR MAX TEMP:  42;

AURORA         CLOUDY    42  40  92 E6        29.64S FOG
6HR MIN TEMP:  41; 6HR MAX TEMP:  44;

LANSING*       CLOUDY    43  43 100 SE6       29.67R
JOLIET*        FOG       45  45  99 SE5       29.65S VSB 3/4
WAUKEGAN       FOG       37  37 100 E6        29.66R VSB 1/16
6HR MIN TEMP:  37; 6HR MAX TEMP:  38;

DUPAGE AIRPORT FOG       41  39  93 E7        29.63F VSB 1/4
6HR MIN TEMP:  40; 6HR MAX TEMP:  42;

WHEELING       FOG       39  38  96 E5        29.66F VSB 1
6HR MIN TEMP:  39; 6HR MAX TEMP:  40;

KANKAKEE*      CLOUDY    48  47  97 CALM      29.66S FOG
MORRIS*        CLOUDY    42  41  97 E6        29.63S FOG
LEWIS AIRPORT* CLOUDY    42  42 100 SE6       29.65S FOG
NORTHERLY ISL    N/A     36  35  96 E1          N/A
$$

WIZ051-052-058>065-066-070>072-210100-
SOUTHEAST WISCONSIN

CITY           SKY/WX    TMP DP  RH WIND       PRES   REMARKS
MILWAUKEE      FOG       38  36  92 SE5       29.68R VSB 1/4
6HR MIN TEMP:  37; 6HR MAX TEMP:  39;

KENOSHA*       FOG       37  36  96 E5        29.66S VSB 1/4
RACINE*        FOG       37  35  92 E3        29.68R VSB 1/2
WAUKESHA       FOG       36  36 100 E7        29.66S VSB 3/4
WEST BEND      FOG       34  34 100 CALM      29.67R VSB 1/2
$$

INZ001>003-010>013-019-020-210100-
NORTHWEST INDIANA

CITY           SKY/WX    TMP DP  RH WIND       PRES   REMARKS
GARY*          CLOUDY    45  43  93 CALM      29.67S FOG
MICHIGAN CITY* NOT AVBL
RENSSELAER*    NOT AVBL
VALPARAISO     CLOUDY    46  46 100 SE8       29.68S FOG
$$

LMZ740>746-210100-
SOUTHERN LAKE MICHIGAN

STATION/POSITION TIME  SKY/WX   TEMP WIND        PRES    VSBY
                                AIR  DIR/SP/G
                 (UTC)          (F)  (DEG/KT/KT) (MB)    (MI)
HARRISON CRIB    2340            37  120/  2/  2   N/A
BURNHAM HARBOR   0000            36   CALM  /  1   N/A
CALUMET HARBOR   2324            36   50/  3/  4 1004.2
BURNS HARBOR     2340            45  170/  5/  8 1005.8R
MICHIGAN CITY    2340            41   70/  4/  5   N/A
$$

ABBREVIATIONS USED IN REMARKS
   TC - TEMPERATURE IN CELSIUS
  WCI - WIND CHILL INDEX
   HX - HEAT INDEX
  VSB - VISIBILITY
$$




USA.gov is the U.S. government's official web portal to all federal, state and local government web resources and services.